FW4719 Weather Reports


Display with metric or nautical units.
time (UTC)temp
F
wind
direction
speed
MPH
gust
MPH
rain 1hr
in
rain 24hr
in
rain mn
in
humidity
%
barometer
mb
20260510173054 53 24 3.0 12.0 0.00 0.00 0.00 72 1011.6
20260510171552 53 56 4.0 16.0 0.00 0.00 0.00 71 1011.6
20260510170054 54 27 5.0 15.0 0.00 0.00 0.00 70 1011.5
20260510164557 55 49 4.0 11.0 0.00 0.00 0.00 69 1011.6
20260510163058 56 39 4.0 14.0 0.00 0.00 0.00 68 1011.6
20260510161554 58 360 4.0 10.0 0.00 0.00 0.00 67 1011.9
20260510160056 59 34 4.0 15.0 0.00 0.00 0.00 65 1012.0
20260510154557 61 25 5.0 14.0 0.00 0.00 0.00 62 1012.2
20260510153055 63 34 4.0 18.0 0.00 0.00 0.00 60 1012.2
20260510151559 64 30 4.0 13.0 0.00 0.00 0.00 59 1012.4
20260510144605 64 17 6.0 12.0 0.00 0.00 0.00 59 1012.7
20260510143100 64 26 3.0 12.0 0.00 0.00 0.00 59 1012.8
20260510141600 65 0 2.0 9.0 0.00 0.00 0.00 59 1012.9
20260510140100 64 0 3.0 12.0 0.00 0.00 0.00 58 1012.9
20260510134607 65 32 4.0 15.0 0.00 0.00 0.00 58 1012.9
20260510133105 65 360 3.0 14.0 0.00 0.00 0.00 58 1013.0
20260510131606 66 22 3.0 11.0 0.00 0.00 0.00 56 1012.9
20260510130110 65 5 3.0 11.0 0.00 0.00 0.00 55 1012.9
20260510124604 65 74 3.0 12.0 0.00 0.00 0.00 57 1013.0
20260510123104 64 37 2.0 10.0 0.00 0.00 0.00 57 1013.1
20260510121559 65 360 2.0 9.0 0.00 0.00 0.00 57 1013.2
20260510114558 64 32 3.0 12.0 0.00 0.00 0.00 58 1013.4
20260510113059 63 0 3.0 12.0 0.00 0.00 0.00 57 1013.5
20260510111551 63 5 4.0 9.0 0.00 0.00 0.00 56 1013.8
20260510110055 62 118 3.0 13.0 0.00 0.00 0.00 59 1013.7
20260510104554 62 0 3.0 13.0 0.00 0.00 0.00 63 1013.7
20260510103054 60 59 2.0 11.0 0.00 0.00 0.00 67 1013.6
20260510101557 58 23 2.0 13.0 0.00 0.00 0.00 68 1013.9
20260510100059 58 46 3.0 14.0 0.00 0.00 0.00 68 1014.0
20260510094553 57 32 3.0 10.0 0.00 0.00 0.00 69 1014.1
20260510093054 56 26 4.0 13.0 0.00 0.00 0.00 70 1014.1
20260510091554 54 23 2.0 10.0 0.00 0.00 0.00 71 1014.0
20260510090052 53 351 3.0 11.0 0.00 0.00 0.00 72 1013.9
20260510084557 53 329 0.0 11.0 0.00 0.00 0.00 73 1014.0
20260510083056 52 346 3.0 13.0 0.00 0.00 0.00 73 1013.9
20260510081554 53 73 1.0 9.0 0.00 0.00 0.00 72 1013.7
20260510080103 53 0 2.0 10.0 0.00 0.00 0.00 72 1013.6
20260510074601 52 0 2.0 16.0 0.00 0.00 0.00 74 1013.5
20260510073116 51 50 3.0 11.0 0.00 0.00 0.00 75 1013.3
20260510071559 50 30 5.0 19.0 0.00 0.00 0.00 77 1013.0
20260510070057 49 35 5.0 17.0 0.00 0.00 0.00 79 1013.0
20260510064631 48 39 5.0 14.0 0.00 0.00 0.00 79 1012.8
20260510063100 47 11 2.0 17.0 0.00 0.00 0.00 79 1012.6
20260510061557 47 34 4.0 12.0 0.00 0.00 0.00 79 1012.7
20260510060057 47 0 4.0 13.0 0.00 0.00 0.00 79 1012.6
20260510054557 47 103 5.0 17.0 0.00 0.00 0.00 78 1012.5
20260510053055 47 37 4.0 14.0 0.00 0.00 0.00 77 1012.7
20260510051558 48 11 4.0 11.0 0.00 0.00 0.00 76 1012.8
20260510050055 48 32 5.0 13.0 0.00 0.00 0.00 75 1012.6
20260510044556 49 39 5.0 16.0 0.00 0.00 0.00 75 1012.7
20260510043054 49 30 4.0 13.0 0.00 0.00 0.00 74 1012.7
20260510041554 50 68 6.0 15.0 0.00 0.00 0.00 74 1012.5
20260510040054 50 360 6.0 17.0 0.00 0.00 0.00 73 1012.7
20260510034616 51 51 6.0 16.0 0.00 0.00 0.00 73 1012.5
20260510033059 51 65 6.0 18.0 0.00 0.00 0.00 74 1012.7
20260510031554 51 40 5.0 16.0 0.00 0.00 0.00 75 1012.7
20260510030110 52 57 5.0 15.0 0.00 0.00 0.00 76 1012.9
20260510024600 52 46 6.0 14.0 0.00 0.00 0.00 76 1012.8
20260510023057 53 61 5.0 17.0 0.00 0.00 0.00 75 1013.0
20260510021608 53 35 6.0 16.0 0.00 0.00 0.00 75 1013.0
20260510020056 53 103 5.0 14.0 0.00 0.00 0.00 75 1013.0
20260510014601 54 105 3.0 16.0 0.00 0.00 0.00 75 1013.2
20260510013110 54 103 4.0 14.0 0.00 0.00 0.00 74 1013.4
20260510011556 54 46 4.0 14.0 0.00 0.00 0.00 74 1013.4
20260510010054 55 36 4.0 20.0 0.00 0.00 0.00 74 1013.5
20260510004551 55 86 3.0 15.0 0.00 0.00 0.00 74 1013.5
20260510003106 55 61 4.0 16.0 0.00 0.00 0.00 74 1013.5
20260510001554 55 81 3.0 16.0 0.00 0.00 0.00 75 1013.5
20260510000116 56 95 5.0 13.0 0.00 0.00 0.00 75 1013.8
20260509234558 56 89 2.0 10.0 0.00 0.00 0.00 75 1013.8
20260509233055 56 31 2.0 12.0 0.00 0.00 0.00 75 1013.8
20260509231608 56 93 3.0 12.0 0.00 0.00 0.00 74 1013.9
20260509230058 56 49 4.0 10.0 0.00 0.00 0.00 74 1013.9
20260509224555 56 40 3.0 10.0 0.00 0.00 0.00 74 1014.0
20260509223105 57 39 2.0 8.0 0.00 0.00 0.00 73 1014.1
20260509221626 57 13 2.0 7.0 0.00 0.00 0.00 73 1014.3
20260509220056 57 349 2.0 5.0 0.00 0.00 0.00 71 1014.4
20260509214603 57 32 2.0 5.0 0.00 0.00 0.00 71 1014.2
20260509213055 57 346 0.0 6.0 0.00 0.00 0.00 72 1014.2
20260509211605 57 32 2.0 5.0 0.00 0.00 0.00 71 1014.2
20260509210056 57 24 2.0 5.0 0.00 0.00 0.00 71 1014.0
20260509204600 57 49 2.0 5.0 0.00 0.00 0.00 70 1014.1
20260509203102 57 0 0.0 6.0 0.00 0.00 0.00 70 1014.0
20260509201553 58 41 3.0 8.0 0.00 0.00 0.00 70 1014.0
20260509200111 58 14 2.0 7.0 0.00 0.00 0.00 69 1014.0
20260509194556 58 9 2.0 5.0 0.00 0.00 0.00 70 1014.0
20260509193102 59 0 0.0 0.0 0.00 0.00 0.00 70 1014.0
20260509191553 60 0 0.0 0.0 0.00 0.00 0.00 69 1014.0
20260509190058 61 0 0.0 1.0 0.00 0.00 0.00 67 1014.0
20260509184557 62 0 0.0 0.0 0.00 0.00 0.00 67 1014.0
20260509183108 63 0 0.0 0.0 0.00 0.00 0.00 66 1013.9
20260509181552 63 0 0.0 1.0 0.00 0.00 0.00 65 1013.8
20260509180055 63 0 0.0 1.0 0.00 0.00 0.00 64 1013.7
20260509174600 63 0 0.0 0.0 0.00 0.00 0.00 63 1013.7